Weather History for KBGR - April, 2014

Change the Weather History Date:

Saturday, April 19, 2014

  Actual Average Record
Temperature  
Mean Temperature 39 °F 44 °F  
Max Temperature 51 °F 55 °F 85 °F (1927)
Min Temperature 26 °F 34 °F 18 °F (1926)
Degree Days  
Heating Degree Days 26 21  
Month to date heating degree days 469 470  
Since 1 July heating degree days 7525 7193  
Cooling Degree Days 0 0  
Month to date cooling degree days 0 0  
Year to date cooling degree days 0 0  
Moisture  
Dew Point 27 °F    
Average Humidity 66    
Maximum Humidity 92    
Minimum Humidity 39    
Precipitation  
Precipitation T in 0.12 in 1.34 in (1969)
Month to date precipitation 1.73 2.33  
Year to date precipitation 10.55 11.12  
Snow  
Snow 0.00 in 0.10 in 1.70 in (1969)
Month to date snowfall 1.1 3.3  
Since 1 July snowfall 80.0 65.7  
Snow Depth 0.00 in    
Sea Level Pressure  
Sea Level Pressure 30.19 in    
Wind  
Wind Speed 8 mph (West)    
Max Wind Speed 28 mph    
Max Gust Speed 36 mph    
Visibility 10 miles    
Events      
T = Trace of Precipitation, MM = Missing Value Source: NWS Daily Summary

Daily Weather History Graph

Daily Weather History Graph

Search for Another Location

Airport or City:

Trip Planner

Search our weather history database for the weather conditions in past years. The results will help you decide how hot, cold, wet, or windy it might be!

Date:

Astronomy

Apr. 19, 2014 Rise Set
Actual Time 5:44 AM EDT 7:25 PM EDT
Civil Twilight 5:13 AM EDT 7:56 PM EDT
Nautical Twilight 4:35 AM EDT 8:34 PM EDT
Astronomical Twilight 3:55 AM EDT 9:14 PM EDT
Moon No Moon Rise 8:53 AM EDT (4/19)
Length of Visible Light 14h 43m
Length of Day
13h 41m
Waning Gibbous, 79% of the Moon is Illuminated
Apr 19
Waning Gibbous
Apr 22
Last Quarter
Apr 29
New
May 6
First Quarter
May 14
Full

Hourly Weather History & Observations

Time (EDT) Temp. Windchill Dew Point Humidity Pressure Visibility Wind Dir Wind Speed Gust Speed Precip Events Conditions
12:53 AM 32.0 °F 27.5 °F 26.1 °F 79% 30.22 in 10.0 mi South 4.6 mph - N/A   Scattered Clouds
1:53 AM 30.0 °F 26.5 °F 26.1 °F 85% 30.19 in 10.0 mi South 3.5 mph - N/A   Scattered Clouds
2:53 AM 26.1 °F - 25.0 °F 96% 30.16 in 10.0 mi Calm Calm - N/A   Partly Cloudy
3:53 AM 30.9 °F 26.2 °F 27.0 °F 85% 30.14 in 10.0 mi South 4.6 mph - N/A   Overcast
4:53 AM 32.0 °F 27.5 °F 28.4 °F 87% 30.12 in 9.0 mi South 4.6 mph - N/A   Overcast
5:53 AM 32.0 °F 26.4 °F 28.0 °F 85% 30.12 in 9.0 mi South 5.8 mph - N/A   Overcast
6:53 AM 33.1 °F - 28.9 °F 85% 30.12 in 8.0 mi Calm Calm - N/A   Overcast
7:53 AM 34.0 °F 29.8 °F 30.0 °F 85% 30.13 in 7.0 mi SW 4.6 mph - N/A   Overcast
8:53 AM 36.0 °F 29.6 °F 30.0 °F 79% 30.14 in 9.0 mi WSW 8.1 mph - N/A   Overcast
9:53 AM 39.0 °F 32.8 °F 30.9 °F 73% 30.14 in 10.0 mi WNW 9.2 mph - N/A   Mostly Cloudy
10:53 AM 42.1 °F 35.2 °F 34.0 °F 73% 30.14 in 10.0 mi NW 12.7 mph - 0.00 in   Overcast
11:15 AM 45.0 °F 38.5 °F 36.0 °F 71% 30.13 in 10.0 mi NNW 13.8 mph - 0.00 in   Overcast
11:36 AM 45.0 °F 37.6 °F 33.1 °F 63% 30.13 in 10.0 mi NW 17.3 mph 24.2 mph 0.00 in   Overcast
11:53 AM 48.0 °F - 34.0 °F 58% 30.14 in 10.0 mi NW 18.4 mph - 0.00 in   Mostly Cloudy
12:53 PM 48.9 °F - 32.0 °F 52% 30.14 in 10.0 mi NW 19.6 mph 29.9 mph N/A   Mostly Cloudy
1:53 PM 48.9 °F - 27.0 °F 43% 30.15 in 10.0 mi WNW 17.3 mph 32.2 mph N/A   Mostly Cloudy
2:53 PM 50.0 °F - 26.1 °F 39% 30.15 in 10.0 mi WNW 19.6 mph 25.3 mph N/A   Mostly Cloudy
3:53 PM 48.0 °F - 28.0 °F 46% 30.16 in 10.0 mi NW 19.6 mph 31.1 mph N/A   Overcast
4:53 PM 48.0 °F - 26.1 °F 42% 30.19 in 10.0 mi NW 15.0 mph - N/A   Mostly Cloudy
5:53 PM 46.9 °F - 26.1 °F 44% 30.23 in 10.0 mi WNW 18.4 mph 27.6 mph N/A   Mostly Cloudy
6:53 PM 43.0 °F 34.5 °F 21.9 °F 43% 30.27 in 10.0 mi NW 19.6 mph 35.7 mph N/A   Scattered Clouds
7:53 PM 41.0 °F 34.7 °F 21.0 °F 45% 30.29 in 10.0 mi NW 10.4 mph 21.9 mph N/A   Scattered Clouds
8:53 PM 39.0 °F 34.8 °F 21.0 °F 49% 30.31 in 10.0 mi Variable 5.8 mph - N/A   Partly Cloudy
9:53 PM 37.9 °F 33.5 °F 19.9 °F 48% 30.34 in 10.0 mi West 5.8 mph - N/A   Clear
10:53 PM 35.1 °F 30.1 °F 19.9 °F 54% 30.36 in 10.0 mi West 5.8 mph - N/A   Clear
11:53 PM 37.0 °F 30.4 °F 18.0 °F 46% 30.38 in 10.0 mi NW 9.2 mph - N/A   Clear